IRIDIUM 119

Last updated on Tue Sep 22 2026 00:03:21 GMT+0000 (Coordinated Universal Time)

1 42959U 17061E 26264.47702238 .00000042 00000+0 79118-5 0 9993 2 42959 86.4022 345.0173 0002274 93.6882 266.4574 14.34217882468616
UTC large
Height (km)
Speed (km/s)
/
Latitude / Longitude
Inclination (degrees)
Orbital Period (minutes)
Azimuth
Elevation
Range (km)
Doppler Factor

Next 0 passes for location: London (51.5072 / 0.1276)

No passes found over London.